This is the latest recevied weather packets stored in our database for station/object KD2FGL-13. If no packets are shown the sender has not sent any weather packets the latest 10 day(s).
| Time | Temp. | Humidity | Pressure | Rain* | Wind** | Luminosity | Snow |
|---|---|---|---|---|---|---|---|
| 1777573035 | 16.67° C | 56% | 1008.3 hPa | 0 mm | - | - | - |
| 1777571819 | 16.67° C | 56% | 1008.3 hPa | 0 mm | - | - | - |
| 1777570907 | 16.67° C | 56% | 1008.2 hPa | 0 mm | - | - | - |
| 1777570602 | 16.67° C | 57% | 1008.2 hPa | 0 mm | - | - | - |
| 1777569691 | 16.67° C | 57% | 1008.2 hPa | 0 mm | - | - | - |
| 1777568779 | 16.11° C | 59% | 1008.5 hPa | 0 mm | - | - | - |
| 1777568476 | 15.56° C | 59% | 1008.5 hPa | 0 mm | - | - | - |
| 1777567868 | 15.56° C | 60% | 1008.8 hPa | 0 mm | - | - | - |
| 1777566955 | 15° C | 60% | 1009 hPa | 0 mm | - | - | - |
| 1777566044 | 15° C | 60% | 1009.1 hPa | 0 mm | - | - | - |
| 1777565133 | 15° C | 61% | 1009.4 hPa | 0 mm | - | - | - |
| 1777564525 | 15° C | 61% | 1009.5 hPa | 0 mm | - | - | - |
| 1777563005 | 14.44° C | 62% | 1009.5 hPa | 0 mm | - | - | - |
| 1777561789 | 13.33° C | 64% | 1009.6 hPa | 0 mm | - | - | - |
| 1777561485 | 13.33° C | 64% | 1009.5 hPa | 0 mm | - | - | - |
| 1777561181 | 13.33° C | 64% | 1009.6 hPa | 0 mm | - | - | - |
| 1777560878 | 12.78° C | 64% | 1009.7 hPa | 0 mm | - | - | - |
| 1777559662 | 12.22° C | 64% | 1009.6 hPa | 0 mm | - | - | - |
| 1777559054 | 12.22° C | 64% | 1009.7 hPa | 0 mm | - | - | - |
| 1777558750 | 12.22° C | 64% | 1009.6 hPa | 0 mm | - | - | - |
| 1777558446 | 12.22° C | 64% | 1009.7 hPa | 0 mm | - | - | - |
| 1777557534 | 12.22° C | 64% | 1009.5 hPa | 0 mm | - | - | - |
| 1777556319 | 12.22° C | 64% | 1009.4 hPa | 0 mm | - | - | - |
| 1777556014 | 11.67° C | 65% | 1009.5 hPa | 0 mm | - | - | - |
| 1777555711 | 11.67° C | 65% | 1009.5 hPa | 0 mm | - | - | - |
* Rain since midnight (hover to see other rain measurements)
** Current wind speed in m/s (hover to see current wind gust speed)